Latest Weather Observations for Oakey

IDQ60801

Issued at 9:35 pm EST Friday 31 October 2014 (issued every 30 minutes, with the page automatically refreshed every 10 minutes)

About weather observations | Map of weather stations | Latest weather observations for QLD | Other Formats
Station Details ID: 041359 Name: OAKEY AERO Lat: -27.40 Lon: 151.74 Height: 405.69 m
Data from the previous 72 hours. | See also: Recent months at Oakey
Date/Time
EST
Temp
°C
App
Temp
°C
Dew
Point
Rel
Hum
%
Delta-T
°C
Wind Press
QNH
hPa
Press
MSL
hPa
Rain
since 9 am
mm
Dir
 
Spd
km/h
Gust
km/h
Spd
kts
Gust
kts
31/09:30pm 24.1 22.7 16.9 64 4.5 NE 20 30 11 16 1015.4 - 4.4
31/09:00pm 23.9 22.6 17.2 66 4.2 NE 20 28 11 15 1015.0 1013.7 4.4
31/08:30pm 24.8 22.8 17.5 64 4.6 NE 24 33 13 18 1014.9 - 4.4
31/08:00pm 25.1 22.7 17.3 62 4.9 NE 26 39 14 21 1014.5 - 4.4
31/07:30pm 25.6 23.7 16.7 58 5.6 NE 22 32 12 17 1014.1 - 4.4
31/07:00pm 25.3 23.5 15.6 55 6.0 NE 19 22 10 12 1013.7 - 4.4
31/06:30pm 24.7 23.3 15.6 57 5.6 NE 17 22 9 12 1013.1 - 4.4
31/06:00pm 25.6 22.9 14.7 51 6.6 N 22 28 12 15 1012.9 1011.6 4.4
31/05:30pm 25.5 22.6 16.1 56 5.8 NE 26 32 14 17 1012.5 - 4.4
31/05:00pm 25.4 21.8 17.1 60 5.2 NE 32 41 17 22 1012.4 - 4.4
31/04:46pm 26.2 21.7 15.3 51 6.7 NE 33 50 18 27 1012.1 - 4.4
31/04:30pm 23.8 17.5 13.6 52 6.1 NE 39 72 21 39 1012.0 - 4.2
31/04:27pm 22.4 17.7 14.3 60 4.8 NE 32 52 17 28 1011.8 - 3.8
31/04:26pm 23.5 20.4 14.5 57 5.4 E 24 41 13 22 1012.0 - 3.4
31/04:24pm 23.7 15.2 13.3 52 6.1 NNE 50 76 27 41 1012.2 - 2.0
31/04:21pm 25.7 16.6 12.5 44 7.8 NNE 52 76 28 41 1012.1 - 0.0
31/04:14pm 26.9 22.5 14.0 45 7.8 NNE 30 54 16 29 1012.1 - 0.0
31/04:00pm 28.6 23.8 11.6 34 10.0 NE 28 35 15 19 1011.9 - 0.0
31/03:59pm 28.3 23.5 11.8 36 9.7 NE 28 35 15 19 1011.9 - 0.0
31/03:58pm 27.7 19.0 11.3 36 9.5 N 48 67 26 36 1012.0 - 0.0
31/03:53pm 27.0 16.5 11.1 37 9.2 N 57 67 31 36 1011.9 - 0.0
31/03:51pm 29.6 23.1 11.6 33 10.6 N 37 56 20 30 1011.9 - 0.0
31/03:30pm 32.2 27.5 9.1 24 13.2 NE 24 35 13 19 1011.9 - 0.0
31/03:00pm 32.8 29.3 8.9 23 13.7 NE 17 30 9 16 1012.0 1010.7 0.0
31/02:30pm 32.7 29.1 8.2 22 13.9 NE 17 24 9 13 1012.3 - 0.0
31/02:00pm 33.0 29.0 9.1 23 13.7 NNE 20 35 11 19 1012.8 - 0.0
31/01:30pm 32.6 29.1 8.8 23 13.6 NE 17 32 9 17 1013.2 - 0.0
31/01:00pm 32.0 28.7 9.5 25 13.0 NE 17 37 9 20 1013.7 - 0.0
31/12:30pm 33.5 31.3 9.5 23 13.9 ENE 11 26 6 14 1014.3 - 0.0
31/12:00pm 31.8 30.0 11.0 28 12.2 NE 11 20 6 11 1014.8 1013.5 0.0
31/11:30am 31.3 29.1 12.2 31 11.4 N 15 30 8 16 1015.4 - 0.0
31/11:00am 30.6 29.1 12.0 32 11.1 NE 11 24 6 13 1016.2 - 0.0
31/10:30am 30.3 29.2 13.1 34 10.4 NE 11 20 6 11 1016.7 - 0.0
31/10:00am 29.4 27.8 12.8 36 10.0 ENE 13 22 7 12 1017.1 - 0.0
31/09:30am 27.7 26.1 12.9 40 8.8 NE 13 22 7 12 1017.4 - 0.0
31/09:00am 27.1 24.8 13.1 42 8.3 NNE 17 26 9 14 1017.4 1016.1 0.0
31/08:30am 26.1 24.4 13.6 46 7.5 NE 15 20 8 11 1017.4 - 0.0
31/08:00am 24.3 23.1 14.1 53 6.1 NE 13 20 7 11 1017.6 - 0.0
31/07:30am 23.2 22.6 14.7 58 5.1 NNE 11 19 6 10 1018.0 - 0.0
31/07:00am 22.9 22.1 16.0 65 4.2 NE 15 19 8 10 1017.9 - 0.0
31/06:30am 21.9 21.6 16.4 71 3.4 NE 13 17 7 9 1017.8 - 0.0
31/06:00am 21.1 20.9 16.7 76 2.7 NE 13 17 7 9 1017.7 1016.4 0.0
31/05:30am 20.7 20.5 16.7 78 2.5 NE 13 19 7 10 1017.4 - 0.0
31/05:00am 20.4 20.5 16.6 79 2.3 NE 11 13 6 7 1016.9 - 0.0
31/04:30am 20.2 19.6 16.6 80 2.2 NE 15 20 8 11 1016.6 - 0.0
31/04:00am 20.4 19.5 16.8 80 2.2 NE 17 20 9 11 1016.2 - 0.0
31/03:30am 20.3 19.0 16.9 81 2.1 NE 19 24 10 13 1015.9 - 0.0
31/03:00am 19.9 18.6 16.9 83 1.9 NE 19 24 10 13 1015.5 1014.2 0.0
31/02:58am 20.0 18.8 17.0 83 1.9 NE 19 24 10 13 1015.5 - 0.0
31/02:30am 19.7 18.8 16.9 84 1.7 NE 17 22 9 12 1015.3 - 0.0
31/02:00am 19.7 18.7 16.7 83 1.8 NE 17 22 9 12 1015.3 - 0.0
31/01:30am 19.9 19.0 16.9 83 1.9 NE 17 20 9 11 1015.5 - 0.0
31/01:00am 20.0 19.5 16.8 82 2.0 NE 15 19 8 10 1015.9 - 0.0
31/12:30am 20.2 19.6 16.6 80 2.2 ENE 15 19 8 10 1016.3 - 0.0
31/12:00am 20.6 19.7 16.8 79 2.3 ENE 17 20 9 11 1016.6 1015.3 0.0
 
Date/Time
EST
Temp
°C
App
Temp
°C
Dew
Point
Rel
Hum
%
Delta-T
°C
Wind Press
QNH
hPa
Press
MSL
hPa
Rain
since 9 am
mm
Dir
 
Spd
km/h
Gust
km/h
Spd
kts
Gust
kts
30/11:30pm 20.9 20.7 16.7 77 2.6 NE 13 17 7 9 1016.8 - 0.0
30/11:00pm 21.0 20.4 16.6 76 2.7 NE 15 20 8 11 1016.7 - 0.0
30/10:30pm 21.4 19.8 16.6 74 3.0 NE 20 26 11 14 1016.9 - 0.0
30/10:00pm 21.7 19.7 16.4 72 3.3 NE 22 26 12 14 1016.8 - 0.0
30/09:30pm 22.2 20.6 16.5 70 3.5 NE 20 28 11 15 1016.7 - 0.0
30/09:00pm 22.7 20.0 16.5 68 3.8 NE 26 32 14 17 1016.1 1014.8 0.0
30/08:30pm 23.4 20.2 16.4 64 4.3 NE 28 35 15 19 1015.8 - 0.0
30/08:00pm 24.1 20.4 15.9 60 5.1 NE 30 37 16 20 1015.2 - 0.0
30/07:30pm 25.0 21.3 15.9 57 5.6 NE 30 43 16 23 1014.7 - 0.0
30/07:00pm 26.2 23.0 15.3 51 6.7 NE 26 35 14 19 1014.2 - 0.0
30/06:30pm 27.5 23.5 14.2 44 8.1 NE 28 39 15 21 1013.6 - 0.0
30/06:00pm 29.2 27.5 9.8 30 11.1 ENE 9 19 5 10 1013.1 1011.7 0.0
30/05:30pm 31.5 29.3 5.1 19 14.1 N 6 9 3 5 1012.7 - 0.0
30/05:00pm 32.0 29.1 4.7 18 14.6 NW 9 13 5 7 1012.7 - 0.0
30/04:30pm 31.9 29.8 3.8 17 14.8 NNE 4 9 2 5 1012.6 - 0.0
30/04:00pm 33.0 29.6 3.9 16 15.4 WNW 11 19 6 10 1012.6 - 0.0
30/03:30pm 33.7 29.4 3.5 15 15.9 NW 15 24 8 13 1012.7 - 0.0
30/03:00pm 33.0 30.1 4.7 17 15.2 N 9 13 5 7 1012.8 1011.5 0.0
30/02:30pm 33.5 28.6 5.1 17 15.4 W 20 28 11 15 1013.1 - 0.0
30/02:00pm 32.1 28.4 6.3 20 14.1 WSW 15 24 8 13 1013.5 - 0.0
30/01:30pm 32.0 29.4 7.6 22 13.6 WNW 11 24 6 13 1014.1 - 0.0
30/01:00pm 31.7 28.9 8.7 24 13.1 WNW 13 22 7 12 1014.6 - 0.0
30/12:30pm 31.2 27.9 9.4 26 12.5 NNW 17 22 9 12 1015.0 - 0.0
30/12:00pm 30.6 29.5 10.5 29 11.7 NNW 7 13 4 7 1015.8 1014.4 0.0
30/11:30am 29.6 27.5 11.2 32 10.8 NNW 13 24 7 13 1016.4 - 0.0
30/11:00am 28.1 27.4 12.0 36 9.5 NNW 7 13 4 7 1017.0 - 0.0
30/10:30am 27.6 26.6 12.4 39 9.0 E 9 17 5 9 1017.6 - 0.0
30/10:00am 27.3 25.9 13.3 42 8.4 ENE 13 24 7 13 1017.8 - 0.0
30/09:30am 26.5 25.4 14.3 47 7.4 NE 13 20 7 11 1018.3 - 0.0
30/09:00am 24.7 22.0 13.6 50 6.6 NE 20 28 11 15 1018.6 1017.3 0.0
30/08:30am 23.8 21.2 13.9 54 5.9 NE 20 30 11 16 1018.7 - 0.0
30/08:00am 23.3 20.5 14.3 57 5.4 NE 22 28 12 15 1018.9 - 0.0
30/07:30am 21.8 18.5 13.9 61 4.7 NE 24 32 13 17 1019.1 - 0.0
30/07:00am 20.6 17.7 14.0 66 3.9 NE 22 28 12 15 1018.9 - 0.0
30/06:30am 19.2 16.4 14.2 73 2.9 NE 22 28 12 15 1018.8 - 0.0
30/06:00am 17.9 16.4 14.2 79 2.2 NE 15 20 8 11 1018.4 1017.1 0.0
30/05:30am 16.3 15.1 14.0 86 1.3 NE 13 17 7 9 1017.9 - 0.0
30/05:00am 15.9 14.2 13.7 87 1.3 NE 15 17 8 9 1017.5 - 0.0
30/04:30am 16.3 14.7 14.0 86 1.3 NE 15 17 8 9 1017.2 - 0.0
30/04:00am 16.6 14.3 14.1 85 1.4 NE 19 22 10 12 1017.0 - 0.0
30/03:30am 16.9 14.4 14.2 84 1.6 ENE 20 26 11 14 1016.8 - 0.0
30/03:00am 17.0 14.7 14.1 83 1.7 NE 19 24 10 13 1016.9 1015.6 0.0
30/02:30am 17.1 14.8 14.0 82 1.8 ENE 19 24 10 13 1016.9 - 0.0
30/02:00am 17.5 15.0 14.0 80 2.0 ENE 20 28 11 15 1017.0 - 0.0
30/01:30am 17.7 15.1 13.8 78 2.3 ENE 20 26 11 14 1017.0 - 0.0
30/01:00am 17.8 15.4 13.7 77 2.4 NE 19 22 10 12 1017.1 - 0.0
30/12:30am 18.3 15.7 13.8 75 2.6 NE 20 26 11 14 1017.2 - 0.0
30/12:00am 18.5 15.5 13.6 73 2.8 NE 22 28 12 15 1017.5 1016.2 0.0
 
Date/Time
EST
Temp
°C
App
Temp
°C
Dew
Point
Rel
Hum
%
Delta-T
°C
Wind Press
QNH
hPa
Press
MSL
hPa
Rain
since 9 am
mm
Dir
 
Spd
km/h
Gust
km/h
Spd
kts
Gust
kts
29/11:30pm 19.2 15.5 14.0 72 3.0 NE 26 35 14 19 1017.7 - 0.0
29/11:00pm 19.2 16.2 13.6 70 3.3 NE 22 30 12 16 1017.8 - 0.0
29/10:30pm 19.9 15.7 14.7 72 3.1 NE 30 37 16 20 1017.9 - 0.0
29/10:00pm 19.9 16.0 14.5 71 3.2 NE 28 35 15 19 1017.7 - 0.0
29/09:30pm 20.1 15.5 14.5 70 3.3 NE 32 43 17 23 1017.5 - 0.0
29/09:00pm 20.4 15.9 15.0 71 3.2 NE 32 41 17 22 1017.3 1016.0 0.0
29/08:30pm 21.0 16.4 14.6 67 3.8 NE 32 43 17 23 1017.1 - 0.0
29/08:00pm 21.9 16.9 14.0 61 4.7 NE 33 41 18 22 1016.6 - 0.0
29/07:30pm 23.0 17.9 13.2 54 5.8 NE 32 41 17 22 1016.0 - 0.0
29/07:00pm 24.7 21.1 13.0 48 6.9 NE 24 32 13 17 1015.3 - 0.0
29/06:30pm 26.3 21.7 13.4 45 7.7 NE 30 35 16 19 1014.7 - 0.0
29/06:00pm 28.4 23.9 12.7 38 9.4 NE 28 33 15 18 1014.0 1012.7 0.0
29/05:30pm 32.3 26.7 -3.2 10 16.6 W 17 20 9 11 1013.3 - 0.0
29/05:00pm 33.0 28.4 -4.0 9 17.2 WSW 11 19 6 10 1012.9 - 0.0
29/04:30pm 33.4 27.1 -3.7 9 17.4 WSW 20 28 11 15 1012.7 - 0.0
29/04:00pm 34.1 30.2 -1.8 10 17.4 W 9 19 5 10 1012.6 - 0.0
29/03:30pm 33.7 27.6 -3.5 9 17.5 W 19 26 10 14 1012.7 - 0.0
29/03:00pm 34.1 28.1 -1.8 10 17.4 W 20 24 11 13 1012.9 - 0.0
29/02:30pm 33.4 28.6 -2.3 10 17.1 SSW 13 24 7 13 1013.2 - 0.0
29/02:00pm 32.8 28.6 -4.2 9 17.1 W 9 17 5 9 1013.4 - 0.0
29/01:30pm 33.0 26.7 -4.0 9 17.2 WNW 20 24 11 13 1014.0 - 0.0
29/01:00pm 32.7 27.3 -1.6 11 16.6 W 17 32 9 17 1014.2 - 0.0
29/12:30pm 32.2 27.3 -3.2 10 16.6 W 13 22 7 12 1014.5 - 0.0
29/12:00pm 31.5 27.5 -2.5 11 16.0 W 9 20 5 11 1014.9 1013.6 0.0
29/11:30am 30.9 25.7 -3.0 11 15.8 WSW 15 24 8 13 1015.2 - 0.0
29/11:00am 30.6 25.5 -2.0 12 15.4 WSW 15 22 8 12 1015.5 - 0.0
29/10:30am 30.7 26.1 -0.8 13 15.2 SW 13 22 7 12 1015.9 - 0.0
29/10:00am 29.2 24.1 -2.0 13 14.6 SSW 15 24 8 13 1016.2 - 0.0
29/09:30am 28.0 23.4 -1.0 15 13.7 SW 13 20 7 11 1016.5 - 0.0
29/09:00am 27.1 22.9 -0.9 16 13.1 SW 11 20 6 11 1016.7 1015.4 0.0
29/08:30am 25.0 21.8 -0.2 19 11.8 SSW 6 9 3 5 1016.7 - 0.0
29/08:00am 22.9 19.7 -0.6 21 10.7 E 6 9 3 5 1016.7 - 0.0
29/07:30am 20.7 17.4 -1.2 23 9.7 W 6 9 3 5 1016.6 - 0.0
29/07:00am 18.9 15.4 -1.0 26 8.7 W 7 9 4 5 1016.3 - 0.0
29/06:30am 16.4 13.4 0.5 34 7.0 N 6 9 3 5 1016.1 - 0.0
29/06:00am 13.9 11.0 1.2 42 5.6 NE 6 7 3 4 1015.7 1014.3 0.0
29/05:30am 10.2 6.9 0.3 50 4.1 S 7 7 4 4 1015.2 - 0.0
29/05:00am 9.8 7.9 0.4 52 3.9 CALM 0 0 0 0 1015.1 - 0.0
29/04:30am 9.5 5.8 0.1 52 3.9 N 9 11 5 6 1014.9 - 0.0
29/04:00am 10.2 6.2 0.3 50 4.1 N 11 13 6 7 1014.8 - 0.0
29/03:30am 11.4 6.6 -0.1 45 4.8 NNE 15 19 8 10 1014.6 - 0.0
29/03:00am 11.8 8.4 1.7 50 4.4 NNE 9 11 5 6 1014.4 1013.1 0.0
29/02:30am 12.4 8.4 0.5 44 5.1 NNE 11 13 6 7 1014.4 - 0.0
29/02:00am 13.1 9.2 -1.6 36 6.0 NNE 9 13 5 7 1014.3 - 0.0
29/01:30am 15.2 12.1 -0.1 35 6.6 NE 6 7 3 4 1014.2 - 0.0
29/01:00am 16.2 12.6 -2.3 28 7.7 E 7 11 4 6 1014.3 - 0.0
29/12:30am 18.6 15.1 -2.9 23 9.0 SSE 6 11 3 6 1014.4 - 0.0
29/12:00am 19.3 15.4 -1.7 24 9.1 SSE 9 11 5 6 1014.4 1013.1 0.0
 
Date/Time
EST
Temp
°C
App
Temp
°C
Dew
Point
Rel
Hum
%
Delta-T
°C
Wind Press
QNH
hPa
Press
MSL
hPa
Rain
since 9 am
mm
Dir
 
Spd
km/h
Gust
km/h
Spd
kts
Gust
kts
28/11:30pm 17.9 14.3 -2.4 25 8.6 NE 7 11 4 6 1014.5 - 0.0
28/11:00pm 16.4 12.4 -2.6 27 7.9 ESE 9 11 5 6 1014.4 - 0.0
28/10:30pm 20.5 16.7 -3.9 19 10.2 SSW 7 11 4 6 1014.4 - 0.0
28/10:00pm 21.5 17.7 -3.8 18 10.7 SSE 7 9 4 5 1014.3 - 0.0

Other Formats:

Comma delimited format used in spreadsheet applications
http://www.bom.gov.au/fwo/IDQ60801/IDQ60801.94552.axf

JavaScript Object Notation format (JSON) in row-major order
http://www.bom.gov.au/fwo/IDQ60801/IDQ60801.94552.json